Regional Weather Roundup
Issued by NWS Kansas City/Pleasant Hill, MO

Home | Current Version | Previous Version | Text Only | Print | Product List | Glossary On
Versions: 1 2 3 4 5 6 7 8 9 10 11 12 13 14 15 16 17 18 19 20 21 22 23 24 25 26 27 28 29 30 31 32 33 34 35 36 37 38 39 40 41 42 43 44 45 46 47 48 49 50
000
ASUS43 KEAX 282210
RWREAX

WEATHER ROUNDUP FOR EASTERN KANSAS AND NORTHWEST MISSOURI
NATIONAL WEATHER SERVICE KANSAS CITY/PLEASANT HILL MO
500 PM CDT FRI AUG 28 2015

KSZ040-057-103>105-MOZ028-029-037-043-282300-
...KANSAS CITY METROPOLITAN AREA...

CITY           SKY/WX    TMP DP  RH WIND       PRES   REMARKS
K.C. INTL      MOSUNNY   79  64  60 S17       29.90S
K.C. DOWNTOWN  MOSUNNY   81  65  58 SW17G26   29.89S
LEES SUMMIT    PTSUNNY   78  65  63 S16G24    29.92F
OLATHE - IXD   CLOUDY    75  67  76 S14       29.92R
OLATHE - OJC   CLOUDY    74  66  76 S15G23    29.91S
LAWRENCE       PTSUNNY   78  66  66 S15G24    29.88F

$$

MOZ001>008-011>017-020>025-030>033-038>040-044>046-053-054-282300-
...NORTHERN AND CENTRAL MISSOURI...

CITY           SKY/WX    TMP DP  RH WIND       PRES   REMARKS
ST. JOSEPH     CLOUDY    79  69  71 S13       29.86F
MOSBY          PTCLDY    79  64  61 S14G21    29.91R
WARRENSBURG    PTSUNNY   73  64  73 SE10G16   29.92F
WHITEMAN AFB   CLOUDY    74  67  80 S14       29.93F
CLINTON          N/A     77  66  69 S13       29.95F
SEDALIA        CLOUDY    74  68  81 S9        29.97F
WARSAW         NOT AVBL
CHILLICOTHE      N/A     77  67  71 SE9       29.91F
KIRKSVILLE     CLOUDY    73  63  70 SE17G23   29.95F

$$

MOZ041-047>049-056>058-063>065-088>090-097-282300-
...EASTERN AND SOUTHERN MISSOURI...

CITY           SKY/WX    TMP DP  RH WIND       PRES   REMARKS
ST. LOUIS INTL PTSUNNY   82  59  45 SE15      30.03F
SPIRIT OF STL  PTSUNNY   79  63  57 SE8       30.01F
COLUMBIA       CLOUDY    76  64  66 SE10      29.98F
JEFFERSON CITY CLOUDY    80  63  55 SE7       29.97F
ROLLA          PTSUNNY   77  61  57 SE8       30.01F
OSAGE BEACH    CLOUDY    75  63  64 SW8       29.98F
SPRINGFIELD    CLOUDY    78  63  59 S13       29.99F
BRANSON        PTSUNNY   81  63  54 SE8       30.02F
JOPLIN         CLOUDY    78  67  68 S13       29.95F
WEST PLAINS    PTSUNNY   78  59  51 SE5       30.05F

$$

IAZ060-094-KSZ022-034>040-054-083-096-NEZ052-066-093-282300-
...KANSAS...SOUTHEAST NEBRASKA AND IOWA...

CITY           SKY/WX    TMP DP  RH WIND       PRES   REMARKS
TOPEKA         MOSUNNY   80  68  66 S12       29.88R
MANHATTAN      MOSUNNY   86  71  60 VRB6      29.85R HX  91
EMPORIA        MOSUNNY   83  68  60 S20G28    29.87F
CHANUTE        PTSUNNY   75  68  78 S15G23    29.92F
WICHITA        MOSUNNY   90  70  51 S9        29.87F HX  95
OMAHA          PTSUNNY   74  66  76 NW15      29.85S
LINCOLN        CLOUDY    74  64  71 NW14      29.90R
FALLS CITY     CLOUDY    81  73  76 CALM      29.84F
LAMONI         MOSUNNY   77  68  73 S14G23    29.88F
DES MOINES     LGT RAIN  76  66  71 S14       29.84S

$$



USA.gov is the U.S. government's official web portal to all federal, state and local government web resources and services.